Al Hoceima, Morocco

9:02 AM WEST on August 22, 2017 (GMT +0100)
Al Hoceima

Weather History for GMTA - April, 2013

Change the Weather History Date:

Monday, April 22, 2013

  Actual Average Record
Temperature  
Mean Temperature 65 °F -  
Max Temperature 71 °F 68 °F 73 °F (2005)
Min Temperature 59 °F 56 °F 50 °F (2007)
Growing Degree Days 15 (Base 50)    
Moisture  
Dew Point 58 °F    
Average Humidity 77    
Maximum Humidity 88    
Minimum Humidity 67    
Precipitation  
Precipitation 0.00 in - - ()
Sea Level Pressure  
Sea Level Pressure 29.99 in    
Wind  
Wind Speed 5 mph ()    
Max Wind Speed 12 mph    
Max Gust Speed -    
Visibility 6.1 miles    
Events      
Averages and records for this station are not official NWS values.
T = Trace of Precipitation, MM = Missing Value Source: Averaged Metar Reports

Daily Weather History Graph

Daily Weather History Graph

Search for Another Location

Airport or City:

Trip Planner

Search our weather history database for the weather conditions in past years. The results will help you decide how hot, cold, wet, or windy it might be!

Date:

Astronomy

Apr. 22, 2013 Rise Set
Actual Time 5:34 AM WET 6:53 PM WET
Civil Twilight 5:07 AM WET 7:20 PM WET
Nautical Twilight 4:36 AM WET 7:52 PM WET
Astronomical Twilight 4:03 AM WET 8:25 PM WET
Moon 3:34 PM WET 3:13 AM WET
Length of Visible Light 14h 12m
Length of Day
13h 19m
Waxing Gibbous, 86% of the Moon is Illuminated
Apr 22
Waxing Gibbous
Apr 25
Full
May 2
Last Quarter
May 10
New
May 18
First Quarter

Hourly Weather History & Observations

Time (WET) Temp. Dew Point Humidity Pressure Visibility Wind Dir Wind Speed Gust Speed Precip Events Conditions
6:00 AM 59 °F 52 °F 71% 29.98 in 6 mi SSW 4.6 mph - -   Mostly Cloudy
6:00 AM 59.0 °F 51.8 °F 77% 29.98 in 6.2 mi SSW 4.6 mph - N/A   Scattered Clouds
7:00 AM 59.0 °F 53.6 °F 82% 29.98 in 6.2 mi Calm Calm - N/A   Scattered Clouds
8:00 AM 60.8 °F 57.2 °F 88% 29.98 in 6.2 mi SSW 2.3 mph - N/A   Scattered Clouds
9:00 AM 61 °F 57 °F 83% 30.00 in 6 mi NNE 2.3 mph - -   Mostly Cloudy
9:00 AM 60.8 °F 57.2 °F 88% 29.98 in 6.2 mi NNE 2.3 mph - N/A   Mostly Cloudy
10:00 AM 66.2 °F 60.8 °F 83% 30.01 in 6.2 mi North 9.2 mph - N/A   Scattered Clouds
11:00 AM 66.2 °F 60.8 °F 83% 30.01 in 6.2 mi NNE 11.5 mph - N/A   Scattered Clouds
12:00 PM 67 °F 60 °F 72% 30.01 in 6 mi North 6.9 mph - -   Partly Cloudy
12:00 PM 68.0 °F 60.8 °F 78% 30.01 in 6.2 mi North 6.9 mph - N/A   Scattered Clouds
1:00 PM 68.0 °F 60.8 °F 78% 30.01 in 6.2 mi North 9.2 mph - N/A   Scattered Clouds
2:00 PM 68.0 °F 59.0 °F 73% 29.98 in 6.2 mi NNE 11.5 mph - N/A   Partly Cloudy
3:00 PM 67 °F 59 °F 67% 29.99 in 6 mi North 11.5 mph - -   Partly Cloudy
3:00 PM 66.2 °F 59.0 °F 78% 29.98 in 6.2 mi North 11.5 mph - N/A   Partly Cloudy
4:00 PM 66.2 °F 59.0 °F 78% 29.95 in 6.2 mi North 6.9 mph - N/A   Scattered Clouds
5:00 PM 66.2 °F 59.0 °F 78% 29.95 in 6.2 mi NNE 9.2 mph - N/A   Scattered Clouds
6:00 PM 65 °F 57 °F 69% 29.97 in 6 mi North 6.9 mph - -   Scattered Clouds
6:00 PM 64.4 °F 57.2 °F 77% 29.95 in 6.2 mi NNE 6.9 mph - N/A   Partly Cloudy
7:00 PM 64.4 °F 57.2 °F 77% 29.98 in 6.2 mi NNE 6.9 mph - N/A   Scattered Clouds
8:00 PM 64.4 °F 55.4 °F 73% 29.98 in 6.2 mi NE 4.6 mph - N/A   Scattered Clouds
9:00 PM 63 °F 56 °F 70% 30.01 in 6 mi WSW 2.3 mph - -   Partly Cloudy
9:00 PM 62.6 °F 55.4 °F 77% 30.01 in 6.2 mi WSW 2.3 mph - N/A   Scattered Clouds